Wetterdaten: aktuell Samstag, 05.09.2026 14:03
Datum Zeit Temp. A. Feuchte A. Luftdruck Regen Wind Richtung Richtung Sonnenschein Regendauer Taupunkt Windchill
05.09.2026 14:03 19,3 °C 79 % 1021,2 hPa 0,0 mm 1,8 km/h (1 Bft) NO 50 ° 3 min 0 min 15,6 °C 19,3 °C
05.09.2026 13:58 19,0 °C 80 % 1021,2 hPa 0,0 mm 1,1 km/h (1 Bft) O 85 ° 7 min 0 min 15,5 °C 19,0 °C
05.09.2026 13:53 18,5 °C 79 % 1021,3 hPa 0,0 mm 3,2 km/h (1 Bft) N 10 ° 5 min 0 min 14,8 °C 18,5 °C
05.09.2026 13:48 18,6 °C 80 % 1020,3 hPa 0,0 mm 5,5 km/h (2 Bft) SO 135 ° 3 min 0 min 15,1 °C 18,6 °C
05.09.2026 13:43 18,4 °C 80 % 1020,3 hPa 0,0 mm 3,8 km/h (1 Bft) S-SO 150 ° 5 min 0 min 14,9 °C 18,4 °C
05.09.2026 13:38 18,3 °C 81 % 1020,3 hPa 0,0 mm 14,9 km/h (3 Bft) S-SW 195 ° 5 min 0 min 15,0 °C 18,3 °C
05.09.2026 13:33 18,3 °C 81 % 1021,4 hPa 0,0 mm 6,2 km/h (2 Bft) S-SO 150 ° 5 min 0 min 15,0 °C 18,3 °C
05.09.2026 13:28 17,9 °C 83 % 1021,4 hPa 0,0 mm 12,7 km/h (3 Bft) SO 145 ° 5 min 0 min 15,0 °C 17,9 °C
05.09.2026 13:23 17,9 °C 84 % 1021,4 hPa 0,0 mm 9,4 km/h (2 Bft) S 185 ° 5 min 0 min 15,2 °C 17,9 °C
05.09.2026 13:18 17,8 °C 83 % 1020,4 hPa 0,0 mm 12,2 km/h (2 Bft) SO 140 ° 6 min 0 min 14,9 °C 17,8 °C
05.09.2026 13:13 17,6 °C 84 % 1020,4 hPa 0,0 mm 10,7 km/h (2 Bft) S-SO 165 ° 4 min 0 min 14,9 °C 17,6 °C
05.09.2026 13:08 17,8 °C 84 % 1020,4 hPa 0,0 mm 4,0 km/h (1 Bft) SW 220 ° 6 min 0 min 15,1 °C 17,8 °C
05.09.2026 13:03 17,9 °C 83 % 1021,4 hPa 0,0 mm 11,8 km/h (2 Bft) O-NO 75 ° 4 min 0 min 15,0 °C 17,9 °C
05.09.2026 12:58 18,0 °C 83 % 1021,4 hPa 0,0 mm 10,0 km/h (2 Bft) W 260 ° 5 min 0 min 15,1 °C 18,0 °C
05.09.2026 12:53 18,2 °C 83 % 1021,4 hPa 0,0 mm 17,8 km/h (3 Bft) S-SW 195 ° 5 min 0 min 15,3 °C 18,2 °C
05.09.2026 12:48 17,7 °C 84 % 1020,4 hPa 0,0 mm 19,5 km/h (3 Bft) W-NW 295 ° 5 min 0 min 15,0 °C 17,7 °C
05.09.2026 12:43 17,5 °C 85 % 1020,5 hPa 0,0 mm 8,2 km/h (2 Bft) SO 135 ° 5 min 0 min 14,9 °C 17,5 °C
05.09.2026 12:38 17,4 °C 84 % 1020,5 hPa 0,0 mm 1,3 km/h (1 Bft) N-NO 30 ° 5 min 0 min 14,7 °C 17,4 °C
05.09.2026 12:33 17,1 °C 84 % 1020,5 hPa 0,0 mm 11,5 km/h (2 Bft) S 170 ° 6 min 0 min 14,4 °C 17,1 °C
05.09.2026 12:28 17,2 °C 84 % 1020,5 hPa 0,0 mm 9,2 km/h (2 Bft) SO 135 ° 4 min 0 min 14,5 °C 17,2 °C
05.09.2026 12:23 16,8 °C 85 % 1020,6 hPa 0,0 mm 8,0 km/h (2 Bft) NW 305 ° 6 min 0 min 14,3 °C 16,8 °C
05.09.2026 12:18 16,6 °C 86 % 1020,6 hPa 0,0 mm 20,4 km/h (4 Bft) SO 125 ° 4 min 0 min 14,2 °C 16,6 °C
05.09.2026 12:13 17,0 °C 85 % 1020,6 hPa 0,0 mm 22,7 km/h (4 Bft) SO 140 ° 5 min 0 min 14,5 °C 17,0 °C
05.09.2026 12:08 17,0 °C 85 % 1020,6 hPa 0,0 mm 11,6 km/h (2 Bft) S 185 ° 6 min 0 min 14,5 °C 17,0 °C
05.09.2026 12:03 17,2 °C 85 % 1020,5 hPa 0,0 mm 2,5 km/h (1 Bft) NO 50 ° 5 min 0 min 14,7 °C 17,2 °C
05.09.2026 11:58 17,1 °C 85 % 1020,5 hPa 0,0 mm 3,1 km/h (1 Bft) N 350 ° 6 min 0 min 14,6 °C 17,1 °C
05.09.2026 11:53 17,0 °C 87 % 1020,6 hPa 0,0 mm 12,5 km/h (2 Bft) NO 35 ° 5 min 0 min 14,8 °C 17,0 °C
05.09.2026 11:48 17,0 °C 87 % 1020,6 hPa 0,0 mm 2,5 km/h (1 Bft) N 350 ° 5 min 0 min 14,8 °C 17,0 °C
05.09.2026 11:43 16,0 °C 88 % 1020,7 hPa 0,0 mm 7,4 km/h (2 Bft) SO 135 ° 5 min 0 min 14,0 °C 16,0 °C
05.09.2026 11:38 16,0 °C 88 % 1020,7 hPa 0,0 mm 10,7 km/h (2 Bft) S-SO 150 ° 6 min 0 min 14,0 °C 16,0 °C
05.09.2026 11:33 16,1 °C 89 % 1020,7 hPa 0,0 mm 5,8 km/h (2 Bft) O 100 ° 4 min 0 min 14,3 °C 16,1 °C
05.09.2026 11:28 15,5 °C 89 % 1020,8 hPa 0,0 mm 3,8 km/h (1 Bft) SO 145 ° 6 min 0 min 13,7 °C 15,5 °C
05.09.2026 11:23 15,7 °C 90 % 1020,8 hPa 0,0 mm 7,3 km/h (2 Bft) S-SO 165 ° 4 min 0 min 14,1 °C 15,7 °C
05.09.2026 11:18 15,1 °C 90 % 1020,9 hPa 0,0 mm 6,5 km/h (2 Bft) SO 125 ° 5 min 0 min 13,5 °C 15,1 °C
05.09.2026 11:13 15,2 °C 90 % 1020,9 hPa 0,0 mm 3,2 km/h (1 Bft) O 85 ° 5 min 0 min 13,6 °C 15,2 °C
05.09.2026 11:08 15,0 °C 91 % 1020,9 hPa 0,0 mm 2,0 km/h (1 Bft) O-NO 60 ° 0 min 0 min 13,5 °C 15,0 °C
05.09.2026 11:03 14,9 °C 91 % 1021,0 hPa 0,0 mm 6,7 km/h (2 Bft) S-SW 200 ° 3 min 0 min 13,4 °C 14,9 °C
05.09.2026 10:58 15,0 °C 90 % 1020,9 hPa 0,0 mm 1,6 km/h (1 Bft) O-SO 105 ° 2 min 0 min 13,4 °C 15,0 °C
05.09.2026 10:53 14,8 °C 90 % 1021,0 hPa 0,0 mm 0,5 km/h (0 Bft) O-SO 120 ° 6 min 0 min 13,2 °C 14,8 °C
05.09.2026 10:48 14,9 °C 91 % 1022,0 hPa 0,0 mm 1,1 km/h (1 Bft) O-SO 110 ° 5 min 0 min 13,4 °C 14,9 °C
05.09.2026 10:43 14,8 °C 91 % 1022,0 hPa 0,0 mm 3,7 km/h (1 Bft) O-SO 110 ° 5 min 0 min 13,3 °C 14,8 °C
05.09.2026 10:38 14,7 °C 92 % 1022,1 hPa 0,0 mm 0,0 km/h (0 Bft) O 85 ° 4 min 0 min 13,4 °C 14,7 °C
05.09.2026 10:33 14,7 °C 92 % 1022,1 hPa 0,0 mm 0,5 km/h (0 Bft) SO 145 ° 5 min 0 min 13,4 °C 14,7 °C
05.09.2026 10:28 14,2 °C 92 % 1022,1 hPa 0,0 mm 4,7 km/h (1 Bft) SO 140 ° 0 min 0 min 12,9 °C 14,2 °C
05.09.2026 10:23 14,3 °C 92 % 1022,1 hPa 0,0 mm 2,9 km/h (1 Bft) N-NO 25 ° 0 min 0 min 13,0 °C 14,3 °C
05.09.2026 10:18 14,3 °C 94 % 1021,1 hPa 0,0 mm 1,4 km/h (1 Bft) NW 305 ° 0 min 0 min 13,3 °C 14,3 °C
05.09.2026 10:13 14,1 °C 92 % 1021,1 hPa 0,0 mm 2,2 km/h (1 Bft) S-SW 210 ° 0 min 0 min 12,8 °C 14,1 °C
05.09.2026 10:08 14,2 °C 94 % 1021,1 hPa 0,0 mm 0,0 km/h (0 Bft) SO 130 ° 0 min 0 min 13,2 °C 14,2 °C
05.09.2026 10:03 14,2 °C 94 % 1021,1 hPa 0,0 mm 2,2 km/h (1 Bft) S-SO 150 ° 0 min 0 min 13,2 °C 14,2 °C
_ Min-Zeit 08:38 17:37 17:37 - 19:07 - - - - 06:33 08:38
Minimum _ 13,2 °C 42 % 1008,6 hPa - 0,0 km/h (0 Bft) - - - - 11,1 °C 13,2 °C
_ Max-Zeit 17:37 08:03 10:28 06:43 06:23 - - 17:17 06:43 04:18 17:37
Maximum _ 30,8 °C 94 % 1022,1 hPa 0,6 mm 30,4 km/h
NW (5 Bft)
- - 7 min 5 min 17,2 °C 30,8 °C
Durchschnitt _ 20,8 °C 71 % 1014,6 hPa #2,4 mm 7,2 km/h (2 Bft) NW - #3:25 h #35 min. 14,7 °C 20,8 °C